Location: Three Oaks Observatory
(31.1535°N, 83.5955°W)
Time: 16:14:35
(UTC-04:00)

Hubble Space Telescope - Visible Passes

Search period start: 21 September 2018 00:00
Search period end: 01 October 2018 00:00
Orbit: 537 x 541 km, 28.5° (Epoch: 20 September)

Date Brightness Start Highest point End Pass type
(mag) Time Alt. Az. Time Alt. Az. Time Alt. Az.
21 Sep 1.0 20:01:06 10° WSW 20:05:10 58° S 20:09:00 11° E visible
21 Sep 2.6 21:42:14 10° W 21:44:20 27° WSW 21:44:20 27° WSW visible
22 Sep 1.1 19:50:42 10° W 19:54:46 60° S 19:58:51 10° E visible
22 Sep 2.2 21:31:53 10° W 21:34:29 32° WSW 21:34:29 32° WSW visible
23 Sep 2.0 21:21:33 10° W 21:24:39 34° SW 21:24:39 34° SW visible
24 Sep 2.0 21:11:16 10° W 21:14:51 32° SSW 21:14:51 32° SSW visible
25 Sep 2.2 21:01:01 10° WSW 21:04:31 27° SSW 21:05:05 26° S visible
26 Sep 2.5 20:50:49 10° WSW 20:54:04 22° SSW 20:55:22 19° S visible
27 Sep 2.9 20:40:43 10° WSW 20:43:35 18° SSW 20:45:44 13° SSE visible
28 Sep 3.2 20:30:48 10° WSW 20:33:07 15° SSW 20:35:25 10° S visible
29 Sep 3.4 20:21:18 10° SW 20:22:37 11° SSW 20:23:57 10° S visible
